Retour au catalogue

ZHIXIN-1

ActifCommunicationsSSO
NORAD 65489·PAYLOAD·🇨🇳 China
Ce nom de satellite n'a pas encore été confirmé par des sources officielles.

Lancé Sep 5, 2025 depuis Jiuquan Satellite Launch Center

Loading…

Prochains Passages (prochaines 24 heures)

TLE

FraisSource: Space-Track

Époque: Sep 14, 2026, 11:43 UTC

1 65489U 25197B   26257.48880688  .00002833  00000-0  13422-3 0  9999
2 65489  97.4111  82.1664 0014927  58.0051 302.2632 15.20043153 56841

Suivez ZHIXIN-1 en temps réel avec AllMySat

Download on the App Store